Weather in Shchelykovo

Russia / Kostroma Oblast     57°36′28″N   42°09′58″E
temp.,
°C
wind,
m/s
gust,
m/s
humid.,
%
clouds,
%
prec.,
mm/h
press.,
hPa
HPBL,
m
18 april, sun
sun1800:00+4ene39854 0.0 1026181
03:00+3ne38871 0.0 1026164
06:00+2ne310865 0.0 1025238
09:00+8ene476350 0.0 1025505
12:00+10ene685391 0.0 10251241
15:00+10ene6860100 0.0 10261459
18:00+7ene61078100 0.1 1027799
21:00+4ene51177100 0.1 1028843
19 april, mon
mon1900:00+3ene5117270 0.0 1029608
03:00+1ene51175100 0.0 1030527
06:000ene51276100 0.0 1030538
09:00+3e6106199 0.0 1030837
12:00+7e694451 0.0 10301591
15:00+8e693757 0.0 10291744
18:00+6e594528 0.0 10301529
21:00+3ene5125812 0.0 1030525
20 april, tue
tue2000:00+1e51363100 0.0 1030481
03:000e4126761 0.0 1030414
06:000e5136446 0.0 1030456
09:00+5ese6114859 0.0 1029740
12:00+9ese7104353 0.0 10281363
15:00+10ese794232 0.0 10261570
18:00+9ese6114399 0.0 10241236
21:00+5ese61446100 0.0 1024770
21 april, wed
wed2100:00+4ese61551100 0.0 1021792
03:00+3ese71653100 0.0 1018865
06:00+3ese81868100 0.5 10161032
09:00+1ese81996100 2.9 1014867
12:00+1se81997100 6.2 1013776
15:00+2se81793100 6.8 1012894
18:00+3se81793100 0.2 1011858
21:00+4sse71495100 0.6 1010962
22 april, thu
thu2200:00+5s71387100 0.3 10121082
03:00+4ssw61388100 0.4 10141247
06:00+4ssw51289100 0.1 1016760
09:00+5s51085100 0.1 1018778
12:00+9ssw6106482 0.1 10181696
15:00+11ssw696199 0.4 10191476
18:00+9ssw4972100 0.3 1020523
21:00+6s389030 0.6 1022169